Weather reports worldwide

Advertisment
Mühldorf, Germany (10875): temperature & dewpoint: 12.01.2020 12:00:00 - 18.01.2020 12:00:00 (CET)Mühldorf, Germany (10875): temperature 5cm & temperature -5cm: 12.01.2020 12:00:00 - 18.01.2020 12:00:00 (CET)Mühldorf, Germany (10875): temperature -20cm & temperature -100cm: 12.01.2020 12:00:00 - 18.01.2020 12:00:00 (CET)Mühldorf, Germany (10875): wind speed & gusts: 12.01.2020 12:00:00 - 18.01.2020 12:00:00 (CET)Mühldorf, Germany (10875): wind direction: 12.01.2020 12:00:00 - 18.01.2020 12:00:00 (CET)Mühldorf, Germany (10875): reduced air pressure: 12.01.2020 12:00:00 - 18.01.2020 12:00:00 (CET)Mühldorf, Germany (10875): visibility: 12.01.2020 12:00:00 - 18.01.2020 12:00:00 (CET)Mühldorf, Germany (10875): sunshine duration: 12.01.2020 12:00:00 - 18.01.2020 12:00:00 (CET)Mühldorf, Germany (10875): precipitation: 12.01.2020 12:00:00 - 18.01.2020 12:00:00 (CET)
Date & Time tt [°C] td [°C] tt 5cm [°C] tt -5cm [°C] tt -20cm [°C] tt -100cm [°C] ff [km/h] ff [kn] fx [km/h] fx [kn] dd ppp [hPa] vv [km] sd [min] rr [mm]
18.01.2020 12:00:00 4,5 2,4 5,0 3,2 1,4 5,3 19 10 30 16 W 1028,3 56 0 0,0
18.01.2020 11:00:00 4,0 3,0 4,3 2,0 1,4 5,3 10 6 16 8 WSW 1028,4 42 0 0,0
18.01.2020 10:00:00 3,3 2,7 3,0 1,0 1,4 5,3 3 2 10 6 SW 1028,3 19 0 0,0
18.01.2020 09:00:00 2,9 2,4 2,1 0,6 1,4 5,3 0 0 10 5 N 1028,2 19 0 0,0
18.01.2020 08:00:00 3,2 2,5 1,3 0,5 1,4 5,3 6 4 26 14 W 1027,5 20 0 0,2
18.01.2020 07:00:00 4,5 2,1 3,0 0,1 1,4 5,3 19 11 29 16 WNW 1026,6 28 0 1,4
18.01.2020 06:00:00 2,1 2,1 1,6 0,1 1,4 5,3 3 2 8 4 NNW 1026,3 0,8 0 2,2
18.01.2020 05:00:00 1,1 1,1 0,8 0,1 1,4 5,3 2 1 5 3 W 1025,9 2,0 0 0,7
18.01.2020 04:00:00 0,9 0,6 0,7 0,1 1,4 5,3 0 0 3 1 N 1025,5 1,5 0 0,4
18.01.2020 03:00:00 0,7 0,3 0,5 0,1 1,4 5,3 2 1 4 2 SSE 1025,2 2,7 0 0,8
18.01.2020 02:00:00 0,5 0,2 0,5 0,1 1,4 5,3 4 2 5 3 E 1024,9 3,9 0 0,5
18.01.2020 01:00:00 0,7 0,3 0,6 0,1 1,4 5,3 0 0 4 2 N 1024,5 4,8 0 0,2
18.01.2020 00:00:00 0,5 -0,2 0,3 0,1 1,4 5,4 3 2 6 3 E 1024,3 4,3 0 0,1
17.01.2020 23:00:00 0,4 -0,5 0,3 0,1 1,4 5,4 4 2 8 4 E 1024,0 8 0 0,0
17.01.2020 22:00:00 0,5 -0,3 0,1 0,1 1,4 5,4 7 4 11 6 E 1023,6 7 0 0,0
17.01.2020 21:00:00 1,0 -0,2 0,5 0,1 1,4 5,4 6 3 14 7 ESE 1023,2 9 0 0,0
17.01.2020 20:00:00 1,0 -0,3 -0,4 0,1 1,4 5,4 11 6 14 8 E 1022,8 10 0 0,0
17.01.2020 19:00:00 1,7 -0,1 -0,5 0,1 1,4 5,4 9 5 16 8 E 1022,5 14 0 0,0
17.01.2020 18:00:00 2,8 0,8 -1,3 0,3 1,4 5,4 6 3 10 6 E 1022,1 24 0 0,0
17.01.2020 17:00:00 4,1 1,5 -1,2 0,9 1,4 5,4 4 2 7 4 ENE 1021,3 31 17 0,0
17.01.2020 16:00:00 8,0 1,7 6,3 1,5 1,4 5,4 5 3 8 4 ESE 1020,4 34 60 0,0
17.01.2020 15:00:00 8,1 1,5 7,9 0,0 1,4 5,4 6 4 9 5 E 1020,5 33 60 0,0
17.01.2020 14:00:00 7,5 1,1 9,0 -0,2 1,4 5,4 4 2 8 4 E 1021,1 29 60 0,0
17.01.2020 13:00:00 5,4 1,1 7,4 -0,2 1,4 5,4 6 3 9 5 E 1022,2 22 60 0,0
17.01.2020 12:00:00 3,1 -0,2 5,3 -0,3 1,4 5,4 4 2 10 6 E 1023,3 15 60 0,0
17.01.2020 11:00:00 1,0 -1,3 2,4 -0,4 1,4 5,4 5 3 9 5 E 1024,2 12 60 0,0
17.01.2020 10:00:00 -1,2 -2,0 -0,1 -0,5 1,4 5,4 6 3 8 5 E 1024,9 6 60 0,0
17.01.2020 09:00:00 -2,8 -3,2 -2,8 -0,7 1,4 5,4 5 3 9 5 E 1025,6 5 24 0,0
17.01.2020 08:00:00 -4,3 -4,7 -5,5 -0,5 1,4 5,4 3 2 5 3 E 1025,8 0,2 0 0,0
17.01.2020 07:00:00 -4,9 -5,5 -6,5 -0,2 1,4 5,4 2 1 3 2 NE 1025,8 2,9 0 0,0
17.01.2020 06:00:00 -4,5 -4,8 -7,1 -0,1 1,4 5,4 0 0 5 3 N 1025,6 2,4 0 0,0
17.01.2020 05:00:00 -4,6 -4,9 -6,3 0,0 1,5 5,4 5 3 8 5 WNW 1025,8 8 0 0,0
17.01.2020 04:00:00 -3,5 -4,0 -5,5 0,0 1,5 5,4 4 2 8 4 W 1025,8 4,5 0 0,0
17.01.2020 03:00:00 -3,2 -3,6 -5,4 0,0 1,5 5,4 3 2 8 4 W 1026,1 6 0 0,0
17.01.2020 02:00:00 -2,7 -2,8 -5,7 0,0 1,5 5,4 3 1 4 2 NW 1026,5 4,0 0 0,0
17.01.2020 01:00:00 -3,0 -3,5 -5,0 0,1 1,5 5,4 5 3 6 3 WNW 1027,3 4,5 0 0,0
17.01.2020 00:00:00 -2,4 -2,9 -4,8 0,1 1,5 5,4 3 2 4 2 E 1027,8 5 0 0,0
16.01.2020 23:00:00 -1,0 -1,9 -4,3 0,1 1,5 5,4 0 0 11 6 N 1028,3 8 0 0,0
16.01.2020 22:00:00 -0,8 -1,2 -3,9 0,1 1,5 5,4 6 3 10 5 ENE 1028,9 13 0 0,0
16.01.2020 21:00:00 -0,9 -1,3 -4,1 0,1 1,5 5,4 2 1 4 2 NNE 1029,5 6 0 0,0
16.01.2020 20:00:00 -0,5 -0,7 -3,1 0,1 1,5 5,4 3 2 4 2 NNW 1030,0 4,4 0 0,0
16.01.2020 19:00:00 0,2 -0,5 -2,8 0,1 1,4 5,4 3 2 4 2 NE 1030,0 12 0 0,0
16.01.2020 18:00:00 1,4 -0,5 -1,9 0,1 1,4 5,4 3 2 12 6 E 1029,9 14 0 0,0
16.01.2020 17:00:00 5,5 2,0 2,0 0,7 1,4 5,4 8 4 13 7 ENE 1029,3 22 0 0,0
16.01.2020 16:00:00 6,5 3,0 4,7 0,9 1,4 5,4 9 5 15 8 ENE 1029,2 23 38 0,0
16.01.2020 15:00:00 8,9 2,4 8,7 -0,1 1,4 5,4 4 2 7 4 E 1029,0 26 60 0,0
16.01.2020 14:00:00 7,7 1,6 8,3 -0,2 1,4 5,4 5 3 15 8 ESE 1029,7 24 60 0,0
16.01.2020 13:00:00 5,1 1,4 6,7 -0,2 1,4 5,4 10 6 17 9 E 1031,1 16 59 0,0
16.01.2020 12:00:00 3,8 0,4 5,0 -0,2 1,4 5,4 8 4 11 6 ESE 1032,1 15 59 0,0
16.01.2020 11:00:00 1,6 -0,5 3,1 -0,3 1,5 5,4 4 2 7 4 SE 1033,2 10 10 0,0
16.01.2020 10:00:00 -0,2 -1,6 0,2 -0,3 1,5 5,4 6 4 11 6 E 1033,5 9 0 0,0
16.01.2020 09:00:00 -0,7 -1,8 -0,9 -0,4 1,5 5,4 5 3 9 5 E 1033,3 8 0 0,0
16.01.2020 08:00:00 -1,0 -2,0 -1,0 -0,4 1,5 5,4 5 3 10 5 E 1033,1 8 0 0,0
16.01.2020 07:00:00 -1,4 -2,1 -1,2 -0,5 1,5 5,4 6 3 9 5 E 1032,9 7 0 0,0
16.01.2020 06:00:00 -1,7 -2,6 -1,5 -0,5 1,5 5,4 8 4 11 6 ESE 1032,5 8 0 0,0
16.01.2020 05:00:00 -2,2 -2,7 -1,8 -0,6 1,5 5,4 6 4 12 6 E 1032,2 5 0 0,0
16.01.2020 04:00:00 -2,6 -2,9 -2,2 -0,6 1,5 5,5 7 4 11 6 E 1032,0 3,6 0 0,0
16.01.2020 03:00:00 -3,3 -3,6 -2,8 -0,6 1,6 5,5 6 4 9 5 E 1031,7 3,1 0 0,0
16.01.2020 02:00:00 -3,1 -3,6 -4,8 -0,4 1,6 5,5 5 3 11 6 ESE 1031,2 4,4 0 0,0
16.01.2020 01:00:00 -2,9 -3,5 -3,7 -0,2 1,6 5,5 8 5 13 7 E 1030,8 4,7 0 0,0
16.01.2020 00:00:00 -3,2 -3,8 -4,3 -0,1 1,6 5,5 5 3 10 6 E 1030,4 4,2 0 0,0
15.01.2020 23:00:00 -2,4 -3,1 -3,2 0,0 1,6 5,5 8 4 13 7 E 1029,6 4,8 0 0,0
15.01.2020 22:00:00 -2,2 -3,0 -3,1 0,0 1,6 5,5 8 4 13 7 E 1029,1 5 0 0,0
15.01.2020 21:00:00 -1,9 -2,7 -2,7 0,0 1,6 5,5 8 4 14 8 E 1028,3 5 0 0,0
15.01.2020 20:00:00 -1,3 -2,4 -2,5 0,0 1,6 5,5 8 4 13 7 E 1027,5 6 0 0,0
15.01.2020 19:00:00 -0,3 -2,0 -1,6 0,0 1,6 5,5 9 5 13 7 E 1026,5 8 0 0,0
15.01.2020 18:00:00 0,1 -1,6 -2,5 0,0 1,6 5,5 4 2 8 4 ESE 1025,2 12 0 0,0
15.01.2020 17:00:00 0,1 -1,7 -2,2 -0,1 1,6 5,5 5 3 6 3 NW 1024,2 10 23 0,0
15.01.2020 16:00:00 2,2 -1,4 1,9 -0,1 1,6 5,5 4 2 8 4 SE 1022,8 14 60 0,0
15.01.2020 15:00:00 1,7 -1,6 2,0 -0,1 1,6 5,5 6 3 11 6 SE 1022,4 11 60 0,0
15.01.2020 14:00:00 0,2 -1,7 2,1 -0,1 1,7 5,5 6 4 11 6 E 1022,6 8 34 0,0
15.01.2020 13:00:00 -2,0 -2,8 -0,9 -0,1 1,7 5,5 5 3 13 7 SE 1023,8 2,9 0 0,0
15.01.2020 12:00:00 -2,0 -2,5 -0,7 -0,1 1,7 5,5 7 4 11 6 SE 1024,0 2,3 0 0,0
15.01.2020 11:00:00 -2,3 -2,7 -1,4 -0,2 1,7 5,5 5 3 11 6 SE 1024,4 3,5 0 0,0
15.01.2020 10:00:00 -2,8 -3,3 -2,0 -0,2 1,7 5,5 9 5 14 8 ESE 1024,0 3,0 0 0,0
15.01.2020 09:00:00 -2,9 -3,2 -2,5 -0,2 1,7 5,5 6 4 12 6 ESE 1024,0 4,4 0 0,0
15.01.2020 08:00:00 -2,8 -2,9 -2,5 -0,1 1,7 5,5 8 4 13 7 E 1023,6 1,0 0 0,0
15.01.2020 07:00:00 -2,8 -3,0 -2,5 -0,1 1,7 5,5 7 4 13 7 E 1023,6 1,4 0 0,0
15.01.2020 06:00:00 -2,9 -3,1 -2,6 -0,1 1,8 5,5 4 2 15 8 SE 1023,7 1,6 0 0,0
15.01.2020 05:00:00 -2,6 -3,1 -2,8 0,0 1,8 5,5 10 5 14 7 E 1023,5 5 0 0,0
15.01.2020 04:00:00 -2,5 -3,1 -3,3 0,0 1,8 5,5 8 5 12 6 E 1023,4 7 0 0,0
15.01.2020 03:00:00 -2,4 -3,2 -3,3 0,1 1,8 5,5 8 4 16 8 E 1023,7 7 0 0,0
15.01.2020 02:00:00 -2,3 -2,9 -2,9 0,1 1,8 5,5 12 6 16 9 E 1023,6 7 0 0,0
15.01.2020 01:00:00 -2,1 -2,9 -3,0 0,1 1,8 5,5 6 3 10 5 ESE 1023,5 7 0 0,0
15.01.2020 00:00:00 -1,7 -2,5 -2,5 0,1 1,8 5,5 9 5 16 8 E 1023,6 8 0 0,0
14.01.2020 23:00:00 -1,3 -2,1 -1,8 0,2 1,8 5,5 9 5 16 9 E 1023,1 7 0 0,0
14.01.2020 22:00:00 -1,3 -2,0 -1,8 0,2 1,8 5,5 8 4 14 8 E 1023,3 6 0 0,0
14.01.2020 21:00:00 -1,1 -1,8 -1,7 0,2 1,9 5,5 8 4 16 9 ESE 1023,5 6 0 0,0
14.01.2020 20:00:00 -0,7 -1,7 -1,6 0,2 1,9 5,5 10 5 17 9 E 1023,2 7 0 0,0
14.01.2020 19:00:00 -0,1 -1,4 -1,0 0,2 1,9 5,5 10 5 17 9 E 1023,0 9 0 0,0
14.01.2020 18:00:00 0,8 -1,2 -0,3 0,2 1,9 5,5 12 7 19 11 E 1022,4 13 0 0,0
14.01.2020 17:00:00 1,6 -0,9 0,2 0,2 1,9 5,5 9 5 12 6 E 1021,7 20 19 0,0
14.01.2020 16:00:00 3,4 0,0 1,7 0,3 1,9 5,5 7 4 11 6 E 1021,2 27 55 0,0
14.01.2020 15:00:00 3,7 -0,7 4,1 0,1 1,9 5,5 7 4 13 7 ESE 1020,8 34 60 0,0
14.01.2020 14:00:00 2,8 -1,5 4,0 0,0 2,0 5,5 9 5 14 7 ESE 1020,9 31 60 0,0
14.01.2020 13:00:00 1,0 -2,6 3,2 0,0 2,0 5,5 6 4 10 5 ESE 1021,6 26 60 0,0
14.01.2020 12:00:00 -0,5 -0,9 1,3 0,0 2,0 5,5 7 4 8 5 E 1022,1 14 55 0,0
14.01.2020 11:00:00 -2,3 -2,5 -0,9 0,0 2,0 5,5 6 3 10 5 E 1022,6 7 3 0,0
14.01.2020 10:00:00 -2,9 -3,0 -1,9 0,0 2,1 5,5 6 3 11 6 ESE 1022,0 2,5 0 0,0
14.01.2020 09:00:00 -3,3 -3,4 -2,7 0,0 2,1 5,5 8 4 12 6 E 1021,8 0,4 0 0,0
14.01.2020 08:00:00 -3,3 -3,5 -3,1 0,1 2,1 5,5 6 4 11 6 ESE 1021,6 0,7 0 0,0
14.01.2020 07:00:00 -3,6 -3,8 -3,5 0,1 2,1 5,5 6 3 14 8 ESE 1021,2 2,5 0 0,0
14.01.2020 06:00:00 -3,6 -3,7 -3,5 0,2 2,2 5,5 8 4 14 7 E 1021,2 1,1 0 0,0
14.01.2020 05:00:00 -3,5 -3,6 -3,2 0,2 2,2 5,5 8 4 14 8 E 1021,1 0,3 0 0,0
14.01.2020 04:00:00 -3,5 -3,6 -3,3 0,2 2,2 5,5 8 4 13 7 E 1021,7 0,2 0 0,0
14.01.2020 03:00:00 -3,0 -3,4 -3,8 0,3 2,3 5,5 8 5 11 6 E 1022,1 5 0 0,0
14.01.2020 02:00:00 -2,4 -3,0 -5,0 0,3 2,3 5,5 3 2 7 4 E 1021,9 6 0 0,0
14.01.2020 01:00:00 -1,8 -2,8 -3,6 0,4 2,4 5,5 6 3 13 7 E 1021,6 12 0 0,0
14.01.2020 00:00:00 -1,0 -2,3 -2,5 0,4 2,4 5,5 9 5 14 7 ESE 1021,5 18 0 0,0
13.01.2020 23:00:00 -1,0 -1,8 -2,2 0,5 2,5 5,5 10 5 13 7 E 1022,0 9 0 0,0
13.01.2020 22:00:00 -0,6 -0,9 -2,0 0,6 2,5 5,5 10 5 13 7 E 1022,3 5 0 0,0
13.01.2020 21:00:00 -0,3 -0,5 -2,3 0,7 2,5 5,5 7 4 10 5 E 1022,8 3,6 0 0,0
13.01.2020 20:00:00 -0,2 -0,4 -2,8 0,8 2,5 5,5 6 3 11 6 E 1023,2 3,0 0 0,0
13.01.2020 19:00:00 0,4 0,0 -1,5 1,1 2,4 5,5 6 4 11 6 E 1023,5 4,4 0 0,0
13.01.2020 18:00:00 1,5 0,1 -1,9 2,4 2,3 5,5 3 2 8 4 SSW 1023,5 10 0 0,0
13.01.2020 17:00:00 3,2 0,9 0,5 3,7 2,2 5,5 4 2 8 5 WSW 1023,1 13 0 0,0
13.01.2020 16:00:00 4,0 0,8 4,2 4,4 2,1 5,5 5 3 7 4 SSE 1022,9 16 7 0,0
13.01.2020 15:00:00 4,5 0,6 5,5 4,4 2,0 5,5 3 2 7 4 ESE 1023,0 19 40 0,0
13.01.2020 14:00:00 3,6 0,5 4,6 3,7 2,0 5,5 3 1 11 6 NNE 1023,5 17 36 0,0
13.01.2020 13:00:00 3,0 0,3 3,8 1,9 2,0 5,5 6 4 11 6 SE 1024,4 13 56 0,0
13.01.2020 12:00:00 2,2 -0,5 3,2 0,2 2,0 5,5 8 4 11 6 SE 1025,7 16 59 0,0
13.01.2020 11:00:00 0,0 -1,6 2,0 0,2 2,0 5,5 7 4 13 7 E 1027,2 19 23 0,0
13.01.2020 10:00:00 -0,8 -2,0 -0,1 0,2 2,0 5,5 9 5 14 8 ESE 1027,5 22 0 0,0
13.01.2020 09:00:00 -0,9 -1,6 -0,4 0,2 2,0 5,5 5 3 11 6 E 1027,9 18 0 0,0
13.01.2020 08:00:00 -0,8 -1,2 -0,5 0,2 2,0 5,5 6 4 9 5 E 1028,0 14 0 0,0
13.01.2020 07:00:00 -0,8 -0,9 -0,5 0,2 2,0 5,5 5 3 9 5 E 1028,5 7 0 0,0
13.01.2020 06:00:00 -0,9 -1,0 -0,6 0,2 2,0 5,5 5 3 7 4 E 1028,9 5 0 0,0
13.01.2020 05:00:00 -1,2 -1,5 -0,8 0,2 2,1 5,5 4 2 7 4 E 1029,2 4,0 0 0,0
13.01.2020 04:00:00 -1,5 -1,8 -1,1 0,2 2,1 5,5 5 3 6 3 E 1029,8 2,9 0 0,0
13.01.2020 03:00:00 -1,7 -1,7 -1,4 0,2 2,1 5,5 4 2 7 4 SE 1030,2 1,1 0 0,0
13.01.2020 02:00:00 -1,4 -1,4 -1,0 0,2 2,1 5,5 5 3 10 5 SSE 1030,5 0,3 0 0,0
13.01.2020 01:00:00 -1,0 -1,0 -0,7 0,2 2,1 5,5 4 2 8 4 S 1030,6 0,2 0 0,0
13.01.2020 00:00:00 -1,0 -1,0 -0,8 0,2 2,1 5,5 3 2 8 4 SSW 1030,8 0,3 0 0,0
12.01.2020 23:00:00 -0,7 -0,7 -0,6 0,2 2,2 5,5 5 3 8 4 WSW 1031,1 0,8 0 0,0
12.01.2020 22:00:00 -0,6 -0,7 -0,5 0,2 2,2 5,5 6 3 12 6 WNW 1030,9 0,6 0 0,0
12.01.2020 21:00:00 -0,4 -0,5 -0,4 0,2 2,2 5,5 9 5 13 7 NNW 1030,6 2,9 0 0,0
12.01.2020 20:00:00 -0,4 -0,5 -0,7 0,2 2,2 5,5 7 4 16 9 WNW 1030,5 4,8 0 0,0
12.01.2020 19:00:00 -1,7 -2,0 -3,0 0,2 2,3 5,5 6 3 7 4 WNW 1030,1 4,5 0 0,0
12.01.2020 18:00:00 -1,7 -1,7 -2,5 0,2 2,3 5,5 3 1 5 3 WNW 1029,6 1,7 0 0,0
12.01.2020 17:00:00 -0,7 -0,9 -2,0 0,2 2,3 5,5 4 2 6 4 E 1029,1 3,8 0 0,0
12.01.2020 16:00:00 -0,5 -0,5 -0,5 0,2 2,3 5,5 4 2 7 4 ESE 1028,8 0,2 3 0,0
12.01.2020 15:00:00 -0,4 -0,4 0,2 0,3 2,4 5,5 6 3 8 4 ESE 1029,0 0,3 0 0,0
12.01.2020 14:00:00 -0,9 -0,9 0,0 0,3 2,4 5,5 4 2 6 4 SE 1029,4 0,2 0 0,0
12.01.2020 13:00:00 -1,7 -1,8 -0,4 0,3 2,4 5,5 2 1 5 3 SSE 1030,1 0,3 0 0,0
12.01.2020 12:00:00 -2,5 -2,5 -0,8 0,3 2,5 5,5 3 2 6 3 E 1031,1 0,3 0 0,0

tt = temperature
td = dewpoint
tt 5cm = temperature 5cm
tt -5cm = temperature -5cm
tt -20cm = temperature -20cm
tt -100cm = temperature -100cm
ff = wind speed
fx = gusts
dd = wind direction
ppp = reduced air pressure
vv = visibility
sd = sunshine duration
rr = precipitation

Next stations